Weather History for New Bedford, MA

Change the Weather History Date:

Saturday, August 25, 2012

  Actual Average Record
Temperature  
Mean Temperature 71 °F -  
Max Temperature 82 °F 78 °F 96 °F (1969)
Min Temperature 60 °F 63 °F 45 °F (2004)
Cooling Degree Days 6    
Growing Degree Days 21 (Base 50)    
Moisture  
Dew Point 61 °F    
Average Humidity 85    
Maximum Humidity 100    
Minimum Humidity 39    
Precipitation  
Precipitation 0.00 in - - ()
Sea Level Pressure  
Sea Level Pressure 30.25 in    
Wind  
Wind Speed 1 mph (ENE)    
Max Wind Speed 10 mph    
Max Gust Speed -    
Visibility 4 miles    
Events Fog    
Averages and records for this station are not official NWS values.
T = Trace of Precipitation, MM = Missing Value Source: NWS Daily Summary

Daily Weather History Graph

Daily Weather History Graph

Search for Another Location

Airport:

Trip Planner

Search our weather history database for the weather conditions in past years. The results will help you decide how hot, cold, wet, or windy it might be!

Date:

Astronomy

Aug. 25, 2012 Rise Set
Actual Time 6:03 AM EDT 7:27 PM EDT
Civil Twilight 5:34 AM EDT 7:56 PM EDT
Nautical Twilight 4:59 AM EDT 8:31 PM EDT
Astronomical Twilight 4:22 AM EDT 9:08 PM EDT
Moon 3:00 PM EDT (8/25) No Moon Set
Length of Visible Light 14h 22m
Length of Day
13h 24m
Waxing Gibbous, 62% of the Moon is Illuminated
Aug 25
Waxing Gibbous
Aug 31
Full
Sep 8
Last Quarter
Sep 15
New
Sep 22
First Quarter

Hourly Weather History & Observations

Time (EDT) Temp. Heat Index Dew Point Humidity Pressure Visibility Wind Dir Wind Speed Gust Speed Precip Events Conditions
12:05 AM 64.4 °F - 64.4 °F 100% 30.21 in 1.8 mi Calm Calm - N/A   Clear
12:26 AM 66.2 °F - 64.4 °F 94% 30.21 in 2.0 mi Calm Calm - N/A   Clear
12:53 AM 63.0 °F - 62.1 °F 97% 30.21 in 1.2 mi Calm Calm - N/A   Clear
1:17 AM 66.2 °F - 64.4 °F 94% 30.21 in 0.5 mi Calm Calm - N/A Fog Fog
1:37 AM 64.4 °F - 62.6 °F 94% 30.21 in 1.0 mi Calm Calm - N/A   Mist
1:44 AM 64.4 °F - 62.6 °F 94% 30.21 in 0.2 mi Calm Calm - N/A Fog Fog
1:53 AM 64.0 °F - 63.0 °F 96% 30.21 in 0.2 mi Calm Calm - N/A Fog Fog
2:06 AM 64.4 °F - 62.6 °F 94% 30.21 in 0.5 mi Calm Calm - N/A Fog Fog
2:15 AM 64.4 °F - 62.6 °F 94% 30.21 in 0.2 mi Calm Calm - N/A Fog Fog
2:26 AM 64.4 °F - 62.6 °F 94% 30.21 in 1.0 mi Calm Calm - N/A   Mist
2:33 AM 62.6 °F - 62.6 °F 100% 30.22 in 1.5 mi Calm Calm - N/A   Partly Cloudy
2:53 AM 63.0 °F - 62.1 °F 97% 30.22 in 1.8 mi Calm Calm - N/A   Clear
2:59 AM 62.6 °F - 62.6 °F 100% 30.22 in 1.0 mi Calm Calm - N/A   Mist
3:07 AM 62.6 °F - 60.8 °F 94% 30.22 in 0.5 mi Calm Calm - N/A Fog Fog
3:14 AM 62.6 °F - 62.6 °F 100% 30.22 in 1.0 mi Calm Calm - N/A   Mist
3:17 AM 62.6 °F - 60.8 °F 94% 30.22 in 2.0 mi Calm Calm - N/A   Scattered Clouds
3:39 AM 62.6 °F - 60.8 °F 94% 30.22 in 1.0 mi Calm Calm - N/A   Clear
3:48 AM 62.6 °F - 60.8 °F 94% 30.22 in 3.0 mi Calm Calm - N/A   Partly Cloudy
3:53 AM 63.0 °F - 61.0 °F 93% 30.22 in 2.5 mi Calm Calm - N/A   Partly Cloudy
3:58 AM 62.6 °F - 60.8 °F 94% 30.23 in 0.8 mi Calm Calm - N/A   Partly Cloudy
4:15 AM 62.6 °F - 62.6 °F 100% 30.23 in 2.0 mi Calm Calm - N/A   Mostly Cloudy
4:23 AM 62.6 °F - 62.6 °F 100% 30.23 in 1.2 mi Calm Calm - N/A   Mostly Cloudy
4:29 AM 64.4 °F - 62.6 °F 94% 30.23 in 0.5 mi Calm Calm - N/A Fog Fog
4:38 AM 62.6 °F - 62.6 °F 100% 30.23 in 0.2 mi Calm Calm - N/A Fog Fog
4:44 AM 62.6 °F - 60.8 °F 94% 30.24 in 1.0 mi Calm Calm - N/A   Scattered Clouds
4:53 AM 62.1 °F - 61.0 °F 96% 30.24 in 2.0 mi Calm Calm - N/A   Scattered Clouds
5:00 AM 62.6 °F - 60.8 °F 94% 30.24 in 1.8 mi Calm Calm - N/A   Partly Cloudy
5:34 AM 62.6 °F - 60.8 °F 94% 30.25 in 0.2 mi Calm Calm - N/A Fog Fog
5:53 AM 61.0 °F - 60.1 °F 97% 30.25 in 0.5 mi Calm Calm - N/A Fog Fog
6:01 AM 62.6 °F - 60.8 °F 94% 30.25 in 1.0 mi Calm Calm - N/A   Mostly Cloudy
6:08 AM 60.8 °F - 60.8 °F 100% 30.26 in 0.5 mi Calm Calm - N/A Fog Fog
6:27 AM 60.8 °F - 60.8 °F 100% 30.26 in 3.0 mi Calm Calm - N/A   Clear
6:53 AM 63.0 °F - 62.1 °F 97% 30.27 in 2.0 mi Calm Calm - N/A   Clear
7:03 AM 64.4 °F - 62.6 °F 94% 30.27 in 3.0 mi Calm Calm - N/A   Clear
7:53 AM 70.0 °F - 66.9 °F 90% 30.28 in 3.0 mi Calm Calm - N/A   Clear
8:53 AM 73.9 °F - 66.0 °F 76% 30.29 in 10.0 mi East 5.8 mph - N/A   Clear
9:53 AM 77.0 °F - 61.0 °F 58% 30.31 in 10.0 mi SSE 6.9 mph - N/A   Clear
10:53 AM 77.0 °F - 57.9 °F 52% 30.32 in 10.0 mi ESE 6.9 mph - N/A   Clear
11:53 AM 78.1 °F - 57.0 °F 48% 30.30 in 10.0 mi East 5.8 mph - N/A   Clear
12:53 PM 80.1 °F 80.6 °F 57.9 °F 47% 30.29 in 10.0 mi ENE 6.9 mph - N/A   Clear
1:53 PM 81.0 °F 80.5 °F 54.0 °F 39% 30.29 in 10.0 mi East 10.4 mph - N/A   Clear
2:53 PM 82.0 °F 81.4 °F 55.0 °F 39% 30.28 in 10.0 mi NE 8.1 mph - N/A   Clear
3:53 PM 80.1 °F 80.6 °F 57.9 °F 47% 30.28 in 10.0 mi East 5.8 mph - N/A   Clear
4:53 PM 78.1 °F - 57.0 °F 48% 30.28 in 10.0 mi ENE 10.4 mph - N/A   Clear
5:53 PM 75.9 °F - 57.9 °F 54% 30.29 in 10.0 mi East 6.9 mph - N/A   Clear
6:53 PM 73.0 °F - 57.9 °F 59% 30.30 in 10.0 mi ENE 6.9 mph - N/A   Clear
7:53 PM 66.9 °F - 59.0 °F 76% 30.31 in 10.0 mi NE 3.5 mph - N/A   Clear
8:53 PM 66.0 °F - 60.1 °F 81% 30.32 in 10.0 mi NE 3.5 mph - N/A   Clear
9:53 PM 63.0 °F - 60.1 °F 90% 30.31 in 10.0 mi Calm Calm - N/A   Clear
10:53 PM 61.0 °F - 59.0 °F 93% 30.31 in 10.0 mi NE 4.6 mph - N/A   Clear
11:53 PM 61.0 °F - 59.0 °F 93% 30.30 in 9.0 mi Calm Calm - N/A   Clear